Location: Unspecified
(48.8656°N, 0.0000°E)
Time: 03:58:13
(UTC+00:00)

Transit 2A Rocket - Pass Details

Date: 22 June 2019
Orbit: 588 x 915 km, 66.7° (Epoch: 17 July)

Event Time Altitude Azimuth Distance (km) Brightness Sun altitude
Rises 08:47:34 0° 165° (SSE) 3,534 8.7 44.3°
Reaches altitude 10° 08:50:47 10° 149° (SSE) 2,599 8.4 44.8°
Maximum altitude 08:54:55 19° 106° (ESE) 2,005 8.5 45.5°
Drops below altitude 10° 08:58:59 10° 63° (ENE) 2,560 8.3 46.1°
Sets 09:02:07 0° 47° (NE) 3,464 8.6 46.6°
